When you browse on this site, cookies collect data to enhance your experience and personalize the content and advertising you see.
Visit our Privacy Policy to learn more. By continuing to use the site, you agree to this use of cookies and data.
  • Em Portugal
  • Lista de países
  • Para 7 dias
  • Temperatura da água
  • Mapas de satélite
  • Mapa do tempo
  • Widgets de tempo
  • user-avatar
    Iniciar Sessão

    Previsão horária em Kusur

    Hoje, 26 Junho, Quarta-feira

    Tempo Temperatura Precipitação Vento Pressão Humidade
    00:00 +12°C° 0 mm 1 m/s 586 mmHg 66%
    01:00 +12°C° 0 mm 2 m/s 586 mmHg 65%
    02:00 +12°C° 0 mm 2 m/s 586 mmHg 65%
    03:00 +12°C° 0 mm 2 m/s 586 mmHg 64%
    04:00 +13°C° 0 mm 2 m/s 587 mmHg 62%
    05:00 +15°C° 0 mm 2 m/s 588 mmHg 59%
    06:00 +16°C° 0 mm 1 m/s 589 mmHg 56%
    07:00 +18°C° 0 mm 1 m/s 590 mmHg 53%
    08:00 +19°C° 0 mm 2 m/s 590 mmHg 49%
    09:00 +20°C° 0 mm 2 m/s 591 mmHg 45%
    10:00 +21°C° 0.2 mm 2 m/s 591 mmHg 45%
    11:00 +21°C° 0.2 mm 2 m/s 591 mmHg 45%
    12:00 +21°C° 0.2 mm 3 m/s 591 mmHg 45%
    13:00 +21°C° 0.3 mm 3 m/s 591 mmHg 45%
    14:00 +21°C° 0.3 mm 3 m/s 591 mmHg 44%
    15:00 +21°C° 0.3 mm 2 m/s 591 mmHg 44%
    16:00 +21°C° 0.2 mm 2 m/s 590 mmHg 47%
    17:00 +20°C° 0.2 mm 2 m/s 590 mmHg 50%
    18:00 +19°C° 0.2 mm 2 m/s 590 mmHg 53%
    19:00 +18°C° 0.1 mm 1 m/s 589 mmHg 58%
    20:00 +15°C° 0.1 mm 1 m/s 588 mmHg 64%
    21:00 +13°C° 0.1 mm 1 m/s 587 mmHg 69%
    22:00 +12°C° 0 mm 1 m/s 586 mmHg 71%
    23:00 +12°C° 0 mm 1 m/s 586 mmHg 73%

    Amanhã, 27 Junho, Quinta-feira

    Tempo Temperatura Precipitação Vento Pressão Humidade
    00:00 +11°C° 0 mm 1 m/s 585 mmHg 75%
    01:00 +11°C° 0 mm 1 m/s 585 mmHg 75%
    02:00 +11°C° 0 mm 1 m/s 585 mmHg 76%
    03:00 +11°C° 0 mm 1 m/s 585 mmHg 76%
    04:00 +12°C° 0.1 mm 1 m/s 586 mmHg 74%
    05:00 +13°C° 0.1 mm 1 m/s 586 mmHg 73%
    06:00 +15°C° 0.1 mm 1 m/s 587 mmHg 71%
    07:00 +16°C° 0.2 mm 1 m/s 587 mmHg 70%
    08:00 +16°C° 0.2 mm 2 m/s 588 mmHg 70%
    09:00 +17°C° 0.2 mm 2 m/s 588 mmHg 69%
    10:00 +17°C° 0.7 mm 2 m/s 588 mmHg 69%
    11:00 +18°C° 0.7 mm 2 m/s 587 mmHg 69%
    12:00 +18°C° 0.7 mm 2 m/s 587 mmHg 69%
    13:00 +18°C° 0.6 mm 2 m/s 587 mmHg 69%
    14:00 +18°C° 0.6 mm 2 m/s 586 mmHg 69%
    15:00 +18°C° 0.6 mm 2 m/s 586 mmHg 69%
    16:00 +17°C° 0.3 mm 2 m/s 586 mmHg 71%
    17:00 +18°C° 0.3 mm 1 m/s 585 mmHg 73%
    18:00 +16°C° 0.3 mm 1 m/s 585 mmHg 76%
    19:00 +14°C° 0.2 mm 1 m/s 584 mmHg 80%
    20:00 +13°C° 0.2 mm 1 m/s 584 mmHg 83%
    21:00 +11°C° 0.2 mm 1 m/s 583 mmHg 87%
    22:00 +11°C° 0.1 mm 1 m/s 583 mmHg 88%
    23:00 +11°C° 0.1 mm 1 m/s 582 mmHg 88%

    Depois de amanhã, 28 Junho, Sexta-feira

    Tempo Temperatura Precipitação Vento Pressão Humidade
    00:00 +11°C° 0.1 mm 1 m/s 582 mmHg 89%
    01:00 +11°C° 0 mm 1 m/s 582 mmHg 88%
    02:00 +10°C° 0 mm 1 m/s 581 mmHg 86%
    03:00 +10°C° 0 mm 1 m/s 581 mmHg 85%
    04:00 +11°C° 0 mm 1 m/s 581 mmHg 83%
    05:00 +12°C° 0 mm 1 m/s 582 mmHg 81%
    06:00 +13°C° 0 mm 1 m/s 582 mmHg 79%
    07:00 +15°C° 0.1 mm 1 m/s 583 mmHg 75%
    08:00 +16°C° 0.1 mm 2 m/s 583 mmHg 71%
    09:00 +17°C° 0.1 mm 2 m/s 583 mmHg 68%
    10:00 +17°C° 0.6 mm 2 m/s 583 mmHg 67%
    11:00 +18°C° 0.6 mm 2 m/s 583 mmHg 66%
    12:00 +18°C° 0.6 mm 2 m/s 583 mmHg 65%
    13:00 +19°C° 0.6 mm 2 m/s 583 mmHg 62%
    14:00 +19°C° 0.6 mm 2 m/s 583 mmHg 59%
    15:00 +19°C° 0.6 mm 2 m/s 583 mmHg 57%
    16:00 +19°C° 0.6 mm 2 m/s 582 mmHg 60%
    17:00 +18°C° 0.6 mm 2 m/s 581 mmHg 63%
    18:00 +17°C° 0.6 mm 2 m/s 581 mmHg 67%
    19:00 +16°C° 0 mm 2 m/s 580 mmHg 72%
    20:00 +14°C° 0 mm 2 m/s 580 mmHg 77%
    21:00 +12°C° 0 mm 2 m/s 579 mmHg 82%
    22:00 +12°C° 0 mm 2 m/s 579 mmHg 81%
    23:00 +12°C° 0 mm 2 m/s 579 mmHg 81%

    29 Junho, Sábado

    Tempo Temperatura Precipitação Vento Pressão Humidade
    00:00 +12°C° 0 mm 2 m/s 579 mmHg 81%
    01:00 +13°C° 0.1 mm 2 m/s 579 mmHg 81%
    02:00 +13°C° 0.1 mm 1 m/s 579 mmHg 81%
    03:00 +13°C° 0.1 mm 1 m/s 579 mmHg 81%
    04:00 +13°C° 0 mm 1 m/s 580 mmHg 81%
    05:00 +14°C° 0 mm 1 m/s 580 mmHg 80%
    06:00 +14°C° 0 mm 1 m/s 580 mmHg 79%
    07:00 +15°C° 0.1 mm 2 m/s 581 mmHg 74%
    08:00 +16°C° 0.1 mm 2 m/s 581 mmHg 70%
    09:00 +18°C° 0.1 mm 3 m/s 582 mmHg 65%
    10:00 +18°C° 0.6 mm 3 m/s 582 mmHg 65%
    11:00 +19°C° 0.6 mm 3 m/s 582 mmHg 64%
    12:00 +19°C° 0.6 mm 3 m/s 582 mmHg 64%
    13:00 +18°C° 1.2 mm 3 m/s 582 mmHg 69%
    14:00 +17°C° 1.2 mm 2 m/s 581 mmHg 74%
    15:00 +16°C° 1.2 mm 2 m/s 581 mmHg 80%
    16:00 +16°C° 0.8 mm 2 m/s 581 mmHg 76%
    17:00 +17°C° 0.8 mm 2 m/s 581 mmHg 73%
    18:00 +18°C° 0.8 mm 1 m/s 582 mmHg 70%
    19:00 +15°C° 0.7 mm 2 m/s 582 mmHg 77%
    20:00 +14°C° 0.7 mm 2 m/s 581 mmHg 85%
    21:00 +12°C° 0.7 mm 2 m/s 581 mmHg 93%
    22:00 +12°C° 1.5 mm 1 m/s 581 mmHg 92%
    23:00 +12°C° 1.5 mm 1 m/s 581 mmHg 90%

    30 Junho, Domingo

    Tempo Temperatura Precipitação Vento Pressão Humidade
    00:00 +12°C° 1.5 mm 1 m/s 581 mmHg 89%
    01:00 +11°C° 0.1 mm 1 m/s 581 mmHg 89%
    02:00 +11°C° 0.1 mm 1 m/s 581 mmHg 89%
    03:00 +11°C° 0.1 mm 1 m/s 581 mmHg 89%
    04:00 +11°C° 0 mm 1 m/s 581 mmHg 87%
    05:00 +12°C° 0 mm 1 m/s 581 mmHg 86%
    06:00 +12°C° 0 mm 1 m/s 582 mmHg 85%
    07:00 +13°C° 0.2 mm 2 m/s 582 mmHg 82%
    08:00 +14°C° 0.2 mm 2 m/s 582 mmHg 80%
    09:00 +14°C° 0.2 mm 3 m/s 583 mmHg 77%
    10:00 +14°C° 0.6 mm 3 m/s 583 mmHg 78%
    11:00 +14°C° 0.6 mm 3 m/s 583 mmHg 80%
    12:00 +14°C° 0.6 mm 3 m/s 583 mmHg 81%
    13:00 +14°C° 0.7 mm 3 m/s 582 mmHg 82%
    14:00 +14°C° 0.7 mm 3 m/s 582 mmHg 84%
    15:00 +14°C° 0.7 mm 2 m/s 582 mmHg 86%
    16:00 +14°C° 0.6 mm 2 m/s 582 mmHg 87%
    17:00 +14°C° 0.6 mm 2 m/s 582 mmHg 88%
    18:00 +13°C° 0.6 mm 1 m/s 582 mmHg 90%
    19:00 +13°C° 1.2 mm 1 m/s 582 mmHg 92%
    20:00 +12°C° 1.2 mm 1 m/s 583 mmHg 95%
    21:00 +12°C° 1.2 mm 2 m/s 583 mmHg 98%
    22:00 +12°C° 1.9 mm 1 m/s 583 mmHg 98%
    23:00 +11°C° 1.9 mm 1 m/s 583 mmHg 98%

    1 Julho, Segunda-feira

    Tempo Temperatura Precipitação Vento Pressão Humidade
    00:00 +11°C° 1.9 mm 1 m/s 583 mmHg 98%
    01:00 +10°C° 2.1 mm 2 m/s 583 mmHg 98%
    02:00 +10°C° 2.1 mm 2 m/s 583 mmHg 98%
    03:00 +10°C° 2.1 mm 2 m/s 583 mmHg 98%
    04:00 +10°C° 2 mm 2 m/s 583 mmHg 98%
    05:00 +10°C° 2 mm 2 m/s 582 mmHg 98%
    06:00 +9°C° 2 mm 2 m/s 582 mmHg 98%
    07:00 +9°C° 2.1 mm 2 m/s 582 mmHg 98%
    08:00 +9°C° 2.1 mm 2 m/s 582 mmHg 98%
    09:00 +9°C° 2.1 mm 2 m/s 583 mmHg 98%
    10:00 +9°C° 3.3 mm 3 m/s 582 mmHg 98%
    11:00 +9°C° 3.3 mm 3 m/s 582 mmHg 98%
    12:00 +9°C° 3.3 mm 3 m/s 582 mmHg 98%
    13:00 +8°C° 2.7 mm 3 m/s 582 mmHg 98%
    14:00 +8°C° 2.7 mm 2 m/s 582 mmHg 98%
    15:00 +8°C° 2.7 mm 2 m/s 582 mmHg 97%
    16:00 +8°C° 2.2 mm 2 m/s 582 mmHg 97%
    17:00 +9°C° 2.2 mm 1 m/s 582 mmHg 98%
    18:00 +8°C° 2.2 mm 1 m/s 582 mmHg 98%
    19:00 +8°C° 0.8 mm 1 m/s 582 mmHg 96%
    20:00 +8°C° 0.8 mm 1 m/s 582 mmHg 95%
    21:00 +8°C° 0.8 mm 1 m/s 582 mmHg 94%
    22:00 +7°C° 0.2 mm 1 m/s 582 mmHg 94%
    23:00 +7°C° 0.2 mm 1 m/s 582 mmHg 94%
    Mostrar mais